Location: Rotheul
(50.2849°N, 11.2349°E)
Time: 11:22:37
(UTC+02:00)

ISS - Pass Details

Date: 25 May 2018
Orbit: 402 x 407 km, 51.6° (Epoch: 27 May)

Event Time Altitude Azimuth Distance (km) Brightness Sun altitude
Rises 21:58:55 0° 246° (WSW) 2,315 0.3 -6.9°
Reaches altitude 10° 22:01:00 10° 245° (WSW) 1,457 -0.8 -7.2°
Maximum altitude 22:04:15 73° 160° (SSE) 427 -3.9 -7.5°
Drops below altitude 10° 22:07:31 10° 76° (ENE) 1,460 -1.3 -7.9°
Sets 22:09:36 0° 74° (ENE) 2,321 -0.3 -8.1°
